Simultaneous Nadir Overpasses (SNOs) Predictions

Prediction of SNOs between GOES-14 and AQUA Satellite Orbit:

Table of predicted SNOs for the next 14.0 days since TLE Epoch: 7/17/2021
Index Date Time (GOES-14) GOES-14 Lat,Lon AQUA Lat,Lon Distance(km) Time Diff (sec)
1 07/17/2021 08:23:28 -0.21,-104.11 -0.70,-101.78 264.79 80
2 07/17/2021 20:42:14 0.24,-104.34 -0.30,-106.99 300.44 80
3 07/19/2021 20:32:43 0.24,-104.35 0.31,-104.03 35.72 80
4 07/21/2021 20:20:32 0.24,-104.35 0.92,-101.07 371.66 80
5 07/22/2021 08:39:08 -0.27,-104.12 0.16,-106.23 240.44 80
6 07/24/2021 08:29:37 -0.27,-104.12 -0.45,-103.28 95.48 80
7 07/24/2021 20:48:23 0.30,-104.34 -0.55,-108.49 471.52 80
8 07/26/2021 08:17:26 -0.27,-104.12 -1.07,-100.32 431.94 80
9 07/26/2021 20:36:12 0.30,-104.34 0.07,-105.53 134.65 80
10 07/28/2021 20:26:41 0.29,-104.36 0.69,-102.58 202.59 80
11 07/29/2021 08:47:56 -0.32,-104.15 0.45,-107.73 407.14 80
